Terminal Aerodrome Forecast
Issued by NWS

Home | Current Version | Previous Version | Text Only | Print | Product List | Glossary On
Versions: 1 2 3 4 5 6 7 8 9 10 11 12
000
FTUS45 KGGW 252300
TAFGDV
TAF
KGDV 252320Z 2600/2624 11008KT P6SM FEW160
     FM261200 22007KT P6SM SCT150
     FM261800 29020KT P6SM SCT120
      AMD LTD TO CLD VIS AND WIND=

USA.gov is the U.S. government's official web portal to all federal, state and local government web resources and services.